This is the latest recevied weather packets stored in our database for station/object N9GKE-1. If no packets are shown the sender has not sent any weather packets the latest 10 day(s).
| Time | Temp. | Humidity | Pressure | Rain* | Wind** | Luminosity | Snow |
|---|---|---|---|---|---|---|---|
| 1778225350 | 10.56° C | 79% | 1012.4 hPa | 0 mm | - | - | - |
| 1778224894 | 10.56° C | 80% | 1012.6 hPa | 0 mm | - | - | - |
| 1778224749 | 10.56° C | 80% | 1012.6 hPa | 0 mm | - | - | - |
| 1778224293 | 11.11° C | 80% | 1012.7 hPa | 0 mm | - | - | - |
| 1778224149 | 11.11° C | 80% | 1012.8 hPa | 0 mm | - | - | - |
| 1778223694 | 11.11° C | 80% | 1012.8 hPa | 0 mm | - | - | - |
| 1778223549 | 11.11° C | 80% | 1012.9 hPa | 0 mm | - | - | - |
| 1778223093 | 11.11° C | 81% | 1013 hPa | 0 mm | - | - | - |
| 1778222950 | 11.11° C | 81% | 1013 hPa | 0 mm | - | - | - |
| 1778222494 | 11.11° C | 80% | 1013.3 hPa | 0 mm | - | - | - |
| 1778222350 | 11.11° C | 80% | 1013.2 hPa | 0 mm | - | - | - |
| 1778221895 | 11.67° C | 75% | 1013.2 hPa | 0 mm | - | - | - |
| 1778221749 | 11.67° C | 74% | 1013.2 hPa | 0 mm | - | - | - |
| 1778221294 | 12.22° C | 71% | 1013.2 hPa | 0 mm | - | - | - |
| 1778221149 | 12.22° C | 70% | 1013.1 hPa | 0 mm | - | - | - |
| 1778220693 | 12.22° C | 69% | 1012.8 hPa | 0 mm | - | - | - |
| 1778220548 | 12.22° C | 69% | 1012.7 hPa | 0 mm | - | - | - |
| 1778220095 | 12.22° C | 69% | 1012.8 hPa | 0 mm | - | - | - |
| 1778219949 | 12.22° C | 69% | 1012.6 hPa | 0 mm | - | - | - |
| 1778219495 | 11.67° C | 70% | 1012.8 hPa | 0 mm | - | - | - |
| 1778219350 | 11.67° C | 70% | 1012.8 hPa | 0 mm | - | - | - |
| 1778218894 | 11.67° C | 72% | 1012.9 hPa | 0 mm | - | - | - |
| 1778218750 | 11.67° C | 72% | 1012.9 hPa | 0 mm | - | - | - |
| 1778218295 | 11.67° C | 72% | 1012.9 hPa | 0 mm | - | - | - |
| 1778218150 | 11.67° C | 73% | 1012.9 hPa | 0 mm | - | - | - |
* Rain latest hour (hover to see other rain measurements)
** Current wind speed in m/s (hover to see current wind gust speed)